Newton, KS

6:30 PM CDT on May 26, 2017 (GMT -0500)
Newton City County

Weather History for KEWK - November, 2012

Change the Weather History Date:

Sunday, November 18, 2012

  Actual Average Record
Temperature  
Mean Temperature 50 °F -  
Max Temperature 60 °F 51 °F 73 °F (2007)
Min Temperature 39 °F 33 °F 6 °F (2014)
Degree Days  
Heating Degree Days 16    
Moisture  
Dew Point 32 °F    
Average Humidity 50    
Maximum Humidity 65    
Minimum Humidity 36    
Precipitation  
Precipitation 0.00 in - - ()
Sea Level Pressure  
Sea Level Pressure 30.14 in    
Wind  
Wind Speed 14 mph (South)    
Max Wind Speed 29 mph    
Max Gust Speed 33 mph    
Visibility 10 miles    
Events      
Averages and records for this station are not official NWS values.
T = Trace of Precipitation, MM = Missing Value Source: NWS Daily Summary

Daily Weather History Graph

Daily Weather History Graph

Search for Another Location

Airport or City:

Trip Planner

Search our weather history database for the weather conditions in past years. The results will help you decide how hot, cold, wet, or windy it might be!

Date:

Astronomy

Nov. 18, 2012 Rise Set
Actual Time 7:13 AM CST 5:14 PM CST
Civil Twilight 6:45 AM CST 5:43 PM CST
Nautical Twilight 6:13 AM CST 6:15 PM CST
Astronomical Twilight 5:42 AM CST 6:46 PM CST
Moon 11:42 AM CST (11/18) 10:34 PM CST (11/18)
Length of Visible Light 10h 57m
Length of Day
10h 01m
Waxing Crescent, 30% of the Moon is Illuminated
Nov 18
Waxing Crescent
Nov 20
First Quarter
Nov 28
Full
Dec 6
Last Quarter
Dec 13
New

Hourly Weather History & Observations

Time (CST) Temp. Windchill Dew Point Humidity Pressure Visibility Wind Dir Wind Speed Gust Speed Precip Events Conditions
12:15 AM 39.2 °F 33.0 °F 26.6 °F 61% 30.23 in 10.0 mi SSE 9.2 mph - N/A   Clear
12:35 AM 39.2 °F 33.0 °F 26.6 °F 61% 30.23 in 10.0 mi SSE 9.2 mph - N/A   Clear
12:55 AM 41.0 °F 35.8 °F 26.6 °F 57% 30.23 in 10.0 mi SSE 8.1 mph - N/A   Clear
1:15 AM 39.2 °F 33.0 °F 26.6 °F 61% 30.22 in 10.0 mi SSE 9.2 mph - N/A   Clear
1:35 AM 39.2 °F 32.5 °F 26.6 °F 61% 30.21 in 10.0 mi SSE 10.4 mph - N/A   Clear
1:55 AM 41.0 °F 34.3 °F 26.6 °F 57% 30.21 in 10.0 mi SSE 11.5 mph - N/A   Clear
2:15 AM 41.0 °F 34.7 °F 26.6 °F 57% 30.21 in 10.0 mi SSE 10.4 mph - N/A   Clear
2:35 AM 39.2 °F 33.0 °F 26.6 °F 61% 30.21 in 10.0 mi SSE 9.2 mph - N/A   Clear
2:55 AM 39.2 °F 33.6 °F 28.4 °F 65% 30.20 in 10.0 mi SSE 8.1 mph - N/A   Clear
3:15 AM 41.0 °F 34.7 °F 28.4 °F 61% 30.20 in 10.0 mi SSE 10.4 mph - N/A   Clear
3:35 AM 41.0 °F 34.3 °F 28.4 °F 61% 30.20 in 10.0 mi SSE 11.5 mph - N/A   Clear
3:55 AM 42.8 °F 36.6 °F 28.4 °F 57% 30.19 in 10.0 mi SSE 11.5 mph - N/A   Clear
4:15 AM 41.0 °F 34.3 °F 28.4 °F 61% 30.18 in 10.0 mi SSE 11.5 mph - N/A   Clear
4:35 AM 41.0 °F 34.3 °F 28.4 °F 61% 30.19 in 10.0 mi SSE 11.5 mph - N/A   Clear
4:55 AM 41.0 °F 33.9 °F 26.6 °F 57% 30.19 in 10.0 mi SSE 12.7 mph - N/A   Clear
5:15 AM 41.0 °F 34.3 °F 26.6 °F 57% 30.19 in 10.0 mi SSE 11.5 mph - N/A   Clear
5:35 AM 41.0 °F 34.3 °F 26.6 °F 57% 30.19 in 10.0 mi South 11.5 mph - N/A   Clear
5:55 AM 41.0 °F 34.3 °F 26.6 °F 57% 30.19 in 10.0 mi SSE 11.5 mph - N/A   Clear
6:15 AM 41.0 °F 34.3 °F 26.6 °F 57% 30.19 in 10.0 mi SSE 11.5 mph - N/A   Clear
6:35 AM 41.0 °F 34.7 °F 26.6 °F 57% 30.18 in 10.0 mi SSE 10.4 mph - N/A   Clear
6:55 AM 39.2 °F 33.0 °F 26.6 °F 61% 30.19 in 10.0 mi SSE 9.2 mph - N/A   Clear
7:15 AM 39.2 °F 32.5 °F 28.4 °F 65% 30.18 in 10.0 mi SSE 10.4 mph - N/A   Clear
7:35 AM 39.2 °F 33.0 °F 28.4 °F 65% 30.18 in 10.0 mi SSE 9.2 mph - N/A   Clear
7:55 AM 39.2 °F 32.0 °F 28.4 °F 65% 30.18 in 10.0 mi SSE 11.5 mph - N/A   Clear
8:15 AM 42.8 °F 35.4 °F 30.2 °F 61% 30.19 in 10.0 mi South 15.0 mph - N/A   Clear
8:35 AM 44.6 °F 37.4 °F 30.2 °F 57% 30.20 in 10.0 mi South 16.1 mph - N/A   Clear
8:55 AM 46.4 °F 39.2 °F 30.2 °F 53% 30.20 in 10.0 mi South 18.4 mph 21.9 mph N/A   Clear
9:15 AM 48.2 °F - 32.0 °F 54% 30.19 in 10.0 mi South 19.6 mph 24.2 mph N/A   Clear
9:35 AM 51.8 °F - 32.0 °F 47% 30.17 in 10.0 mi South 24.2 mph 28.8 mph N/A   Clear
9:55 AM 53.6 °F - 32.0 °F 44% 30.17 in 10.0 mi South 21.9 mph 32.2 mph N/A   Clear
10:15 AM 53.6 °F - 32.0 °F 44% 30.16 in 10.0 mi South 21.9 mph 33.4 mph N/A   Clear
10:35 AM 55.4 °F - 33.8 °F 44% 30.16 in 10.0 mi South 21.9 mph 32.2 mph N/A   Clear
10:55 AM 57.2 °F - 33.8 °F 41% 30.15 in 10.0 mi South 25.3 mph 31.1 mph N/A   Clear
11:15 AM 59.0 °F - 33.8 °F 39% 30.15 in 10.0 mi South 26.5 mph 32.2 mph N/A   Clear
11:35 AM 60.8 °F - 33.8 °F 36% 30.13 in 10.0 mi South 28.8 mph 33.4 mph N/A   Clear
11:55 AM 60.8 °F - 33.8 °F 36% 30.13 in 10.0 mi South 20.7 mph 32.2 mph N/A   Clear
12:15 PM 60.8 °F - 35.6 °F 39% 30.12 in 10.0 mi South 25.3 mph 28.8 mph N/A   Clear
12:35 PM 59.0 °F - 35.6 °F 42% 30.10 in 10.0 mi South 24.2 mph 29.9 mph N/A   Clear
12:55 PM 60.8 °F - 35.6 °F 39% 30.09 in 10.0 mi South 26.5 mph 31.1 mph N/A   Mostly Cloudy
1:15 PM 60.8 °F - 35.6 °F 39% 30.09 in 10.0 mi South 24.2 mph - N/A   Mostly Cloudy
1:35 PM 59.0 °F - 35.6 °F 42% 30.08 in 10.0 mi South 25.3 mph 31.1 mph N/A   Partly Cloudy
1:55 PM 59.0 °F - 35.6 °F 42% 30.07 in 10.0 mi South 21.9 mph 31.1 mph N/A   Clear
2:15 PM 59.0 °F - 35.6 °F 42% 30.07 in 10.0 mi South 24.2 mph 29.9 mph N/A   Clear
2:35 PM 60.8 °F - 35.6 °F 39% 30.07 in 10.0 mi South 23.0 mph 26.5 mph N/A   Clear
2:55 PM 60.8 °F - 35.6 °F 39% 30.06 in 10.0 mi South 24.2 mph 29.9 mph N/A   Clear
3:15 PM 59.0 °F - 33.8 °F 39% 30.06 in 10.0 mi South 20.7 mph 32.2 mph N/A   Clear
3:35 PM 59.0 °F - 35.6 °F 42% 30.05 in 10.0 mi SSE 16.1 mph 26.5 mph N/A   Scattered Clouds
3:55 PM 60.8 °F - 35.6 °F 39% 30.05 in 10.0 mi South 21.9 mph 27.6 mph N/A   Scattered Clouds
4:15 PM 59.0 °F - 35.6 °F 42% 30.07 in 10.0 mi South 20.7 mph 32.2 mph N/A   Clear
4:35 PM 57.2 °F - 35.6 °F 44% 30.07 in 10.0 mi South 19.6 mph 25.3 mph N/A   Clear
4:55 PM 57.2 °F - 33.8 °F 41% 30.07 in 10.0 mi South 18.4 mph 28.8 mph N/A   Clear
5:15 PM 57.2 °F - 33.8 °F 41% 30.07 in 10.0 mi South 17.3 mph 24.2 mph N/A   Clear
5:35 PM 57.2 °F - 33.8 °F 41% 30.06 in 10.0 mi South 15.0 mph - N/A   Clear
5:55 PM 55.4 °F - 33.8 °F 44% 30.07 in 10.0 mi South 15.0 mph 21.9 mph N/A   Clear
6:15 PM 55.4 °F - 33.8 °F 44% 30.07 in 10.0 mi South 19.6 mph 26.5 mph N/A   Clear
6:35 PM 55.4 °F - 33.8 °F 44% 30.08 in 10.0 mi South 18.4 mph - N/A   Clear
6:55 PM 55.4 °F - 33.8 °F 44% 30.08 in 10.0 mi South 18.4 mph 25.3 mph N/A   Clear
7:15 PM 55.4 °F - 33.8 °F 44% 30.09 in 10.0 mi South 19.6 mph 23.0 mph N/A   Clear
7:35 PM 55.4 °F - 33.8 °F 44% 30.09 in 10.0 mi South 17.3 mph 24.2 mph N/A   Clear
7:55 PM 55.4 °F - 33.8 °F 44% 30.09 in 10.0 mi South 16.1 mph 23.0 mph N/A   Clear
8:15 PM 55.4 °F - 33.8 °F 44% 30.09 in 10.0 mi South 16.1 mph - N/A   Clear
8:35 PM 53.6 °F - 33.8 °F 47% 30.09 in 10.0 mi South 17.3 mph - N/A   Scattered Clouds
8:55 PM 53.6 °F - 33.8 °F 47% 30.08 in 10.0 mi South 18.4 mph 25.3 mph N/A   Mostly Cloudy
9:15 PM 53.6 °F - 33.8 °F 47% 30.08 in 10.0 mi South 17.3 mph 26.5 mph N/A   Overcast
9:35 PM 53.6 °F - 33.8 °F 47% 30.09 in 10.0 mi South 17.3 mph 23.0 mph N/A   Overcast
9:55 PM 53.6 °F - 35.6 °F 51% 30.09 in 10.0 mi South 17.3 mph 24.2 mph N/A   Mostly Cloudy
10:15 PM 53.6 °F - 35.6 °F 51% 30.09 in 10.0 mi South 21.9 mph 26.5 mph N/A   Overcast
10:35 PM 53.6 °F - 35.6 °F 51% 30.09 in 10.0 mi South 23.0 mph 31.1 mph N/A   Overcast
11:15 PM 51.8 °F - 39.2 °F 62% 30.08 in 10.0 mi South 20.7 mph 26.5 mph N/A   Overcast
11:55 PM 51.8 °F - 37.4 °F 58% 30.09 in 10.0 mi South 23.0 mph 26.5 mph N/A   Clear